Trochia

operational
NORAD ID: 33313 Int'l Des: 2008-040 Owner: REYE Country: D
LEOCIRCULARRETROGRADESSO

关于 Trochia

正在加载描述...

实时位置

正在加载3D地球...

即将过境

高度历史

Altitude vs Time

uPlot chart will show altitude changes over time

两行轨道根数

1 33313U 08040B 26062.04243219 .00001861 00000-0 14547-3 0 9996
2 33313 97.3957 85.0928 0015248 106.4901 253.8001 15.02151376949561
Epoch: Mar 3, 2026 • Age: 32 hours

当前状态

高度 563.6 km
速度 7.59 km/s
星下点 80.03°N, 120.51°E
发射日期 Aug 29, 2008
运行时间 17.5 years
类型 other

技术详情

分类 Payload
质量 152.00 kg
干质量 140.00 kg
总质量 152.00 kg
长度 1.00 m
直径 0.80 m
跨度 1.00 m
形状 Hept Cyl
制造商 SSTL
平台类型 SSTL-150
阶段状态 In Orbit
所有者/国家 REYE/D

大型星座

Loading constellations...